sat.trackr.live / text

‹ back to catalog

STARLINK-35599

NORAD 66102 · 2025-236S

PAYLOAD ACTIVE UNKNOWN

§ Identity

Operator
Country
US
Launch date
2025-10-19
Launch site
AFWTR
Launch vehicle
Mass (kg)
RCS (m²)

Purposes: comms

External: N2YO · Heavens-Above · Gunter

§ Orbital elements

Epoch: 2026-09-20T06:04:51.158496Z

Period
93.85 min
Inclination
53.1592°
Eccentricity
0.0001316
Mean motion
15.34407223 rev/d
Perigee alt
461.8 km
Apogee alt
463.6 km
Semi-major
6,840.8 km
B*
3.2450e-4
RAAN
276.5647°
Arg perigee
89.2943°
Mean anomaly
270.8211°
Rev number
5,272

§ Raw data

STARLINK-355991 66102U 25236S   26263.25336989  .00010606  00000+0  32450-3 0  99962 66102  53.1592 276.5647 0001316  89.2943 270.8211 15.34407223 52723

JSON: /api/v1/satellites/66102 · /tle

For live sub-satellite position, see the globe view (requires WebGL).

§ Visibility from observer

Set your observer location to see the next 7 days of passes ≥ 10°. The values pass through the URL so the page stays shareable.

No JS? Fill the form by hand. The geolocation button needs JavaScript.